Weather History for Stansted, United Kingdom

Change the Weather History Date:

Tuesday, January 22, 2013

  Actual Average Record
Temperature  
Mean Temperature 24 °F -  
Max Temperature 35 °F 43 °F 51 °F (2012)
Min Temperature 14 °F 33 °F 14 °F (2013)
Degree Days  
Heating Degree Days 40    
Moisture  
Dew Point 27 °F    
Average Humidity 90    
Maximum Humidity 100    
Minimum Humidity 81    
Precipitation  
Precipitation 0.00 in - - ()
Sea Level Pressure  
Sea Level Pressure 29.59 in    
Wind  
Wind Speed 7 mph ()    
Max Wind Speed 16 mph    
Max Gust Speed -    
Visibility 2.3 miles    
Events Fog    
Averages and records for this station are not official NWS values.
T = Trace of Precipitation, MM = Missing Value Source: Averaged Metar Reports

Daily Weather History Graph

Daily Weather History Graph

Search for Another Location

Airport:

Trip Planner

Search our weather history database for the weather conditions in past years. The results will help you decide how hot, cold, wet, or windy it might be!

Date:

Astronomy

Jan. 22, 2013 Rise Set
Actual Time 7:52 AM GMT 4:29 PM GMT
Civil Twilight 7:14 AM GMT 5:07 PM GMT
Nautical Twilight 6:32 AM GMT 5:49 PM GMT
Astronomical Twilight 5:53 AM GMT 6:29 PM GMT
Moon 12:36 PM GMT (1/22) 4:05 AM GMT (1/22)
Length of Visible Light 9h 53m
Length of Day
8h 37m
Waxing Gibbous, 81% of the Moon is Illuminated
Jan 22
Waxing Gibbous
Jan 27
Full
Feb 3
Last Quarter
Feb 10
New
Feb 17
First Quarter

Hourly Weather History & Observations

Time (GMT) Temp. Windchill Dew Point Humidity Pressure Visibility Wind Dir Wind Speed Gust Speed Precip Events Conditions
12:20 AM 24.8 °F - 21.2 °F 86% 29.50 in 3.1 mi Variable 2.3 mph - N/A   Mist
12:50 AM 24.8 °F 16.1 °F 23.0 °F 93% 29.50 in 2.5 mi ESE 8.1 mph - N/A   Mist
1:20 AM 23.0 °F - 21.2 °F 93% 29.50 in 1.2 mi Calm Calm - N/A   Mist
1:50 AM 21.2 °F 16.4 °F 19.4 °F 93% 29.53 in 0.6 mi NNW 3.5 mph - N/A   Mist
2:20 AM 19.4 °F - 17.6 °F 93% 29.53 in 0.1 mi NNW 2.3 mph - N/A Fog Light Freezing Fog
2:50 AM 15.8 °F - 14.0 °F 93% 29.53 in 0.1 mi North 2.3 mph - N/A Fog Light Freezing Fog
3:20 AM 15.8 °F 10.2 °F 14.0 °F 93% 29.53 in 0.1 mi North 3.5 mph - N/A Fog Light Freezing Fog
3:50 AM 14.0 °F 8.2 °F 12.2 °F 93% 29.53 in 0.2 mi Variable 3.5 mph - N/A Fog Light Freezing Fog
4:20 AM 19.4 °F 10.4 °F 17.6 °F 93% 29.53 in 0.3 mi ENE 6.9 mph - N/A Fog Light Freezing Fog
4:50 AM 17.6 °F 9.3 °F 15.8 °F 93% 29.53 in 0.3 mi ENE 5.8 mph - N/A Fog Light Freezing Fog
5:20 AM 17.6 °F 10.7 °F 15.8 °F 93% 29.53 in 0.7 mi ENE 4.6 mph - N/A Fog Patches of Fog
5:50 AM 17.6 °F 12.3 °F 15.8 °F 93% 29.53 in 2.2 mi North 3.5 mph - N/A   Overcast
6:20 AM 26.6 °F 19.1 °F 26.6 °F 100% 29.53 in 3.1 mi ENE 6.9 mph - N/A   Overcast
6:50 AM 28.4 °F 22.2 °F 26.6 °F 93% 29.53 in 2.5 mi ENE 5.8 mph - N/A   Overcast
7:20 AM 28.4 °F 22.2 °F 28.4 °F 100% 29.53 in 1.6 mi NE 5.8 mph - N/A   Overcast
7:50 AM 28.4 °F 22.2 °F 26.6 °F 93% 29.56 in 1.6 mi ENE 5.8 mph - N/A   Overcast
8:20 AM 28.4 °F 20.4 °F 28.4 °F 100% 29.56 in 0.4 mi East 8.1 mph - N/A Fog Light Freezing Fog
8:50 AM 28.4 °F 21.2 °F 28.4 °F 100% 29.56 in 0.2 mi East 6.9 mph - N/A Fog Light Freezing Fog
9:20 AM 30.2 °F 22.6 °F 28.4 °F 93% 29.56 in 0.1 mi East 8.1 mph - N/A Fog Light Freezing Fog
9:50 AM 30.2 °F 21.9 °F 30.2 °F 100% 29.56 in 0.1 mi East 9.2 mph - N/A Fog Light Freezing Fog
10:20 AM 32.0 °F 24.2 °F 30.2 °F 93% 29.56 in 0.1 mi East 9.2 mph - N/A Fog Light Freezing Fog
10:50 AM 32.0 °F 25.6 °F 32.0 °F 100% 29.59 in 0.1 mi ESE 6.9 mph - N/A Fog Fog
11:20 AM 33.8 °F 28.6 °F 32.0 °F 93% 29.59 in 0.2 mi ESE 5.8 mph - N/A Fog Fog
11:50 AM 33.8 °F 27.7 °F 33.8 °F 100% 29.59 in 0.9 mi ESE 6.9 mph - N/A   Mostly Cloudy
12:20 PM 33.8 °F 27.0 °F 33.8 °F 100% 29.59 in - East 8.1 mph - N/A   Mostly Cloudy
12:50 PM 35.6 °F 28.6 °F 33.8 °F 93% 29.59 in - East 9.2 mph - N/A   Haze
1:20 PM 35.6 °F 28.6 °F 33.8 °F 93% 29.59 in 3.7 mi East 9.2 mph - N/A   Scattered Clouds
1:50 PM 35.6 °F 27.5 °F 32.0 °F 87% 29.59 in - East 11.5 mph - N/A   Clear
2:20 PM 35.6 °F 27.1 °F 30.2 °F 81% 29.59 in - East 12.7 mph - N/A   Clear
2:50 PM 35.6 °F 27.5 °F 30.2 °F 81% 29.59 in - East 11.5 mph - N/A   Clear
3:20 PM 35.6 °F 27.5 °F 30.2 °F 81% 29.59 in - East 11.5 mph - N/A   Clear
3:50 PM 35.6 °F 27.1 °F 30.2 °F 81% 29.59 in - East 12.7 mph - N/A   Clear
4:20 PM 35.6 °F 27.1 °F 30.2 °F 81% 29.62 in - East 12.7 mph - N/A   Clear
4:50 PM 33.8 °F 25.3 °F 30.2 °F 87% 29.62 in - East 11.5 mph - N/A   Clear
5:20 PM 33.8 °F 25.3 °F 30.2 °F 87% 29.62 in 5.6 mi East 11.5 mph - N/A   Unknown
5:50 PM 33.8 °F 24.8 °F 30.2 °F 87% 29.62 in 5.6 mi East 12.7 mph - N/A   Unknown
6:20 PM 33.8 °F 24.3 °F 30.2 °F 87% 29.65 in 5.6 mi East 13.8 mph - N/A   Unknown
6:50 PM 33.8 °F 24.3 °F 30.2 °F 87% 29.65 in 5.0 mi East 13.8 mph - N/A   Partly Cloudy
7:20 PM 35.6 °F 26.2 °F 30.2 °F 81% 29.65 in 3.1 mi East 15.0 mph - N/A   Haze
7:50 PM 33.8 °F 23.9 °F 30.2 °F 87% 29.65 in 3.7 mi East 15.0 mph - N/A   Partly Cloudy
8:20 PM 33.8 °F 23.9 °F 30.2 °F 87% 29.68 in 3.1 mi East 15.0 mph - N/A   Haze
8:50 PM 33.8 °F 23.9 °F 30.2 °F 87% 29.68 in 3.7 mi East 15.0 mph - N/A   Scattered Clouds
9:20 PM 33.8 °F 23.5 °F 30.2 °F 87% 29.68 in 3.7 mi East 16.1 mph - N/A   Mostly Cloudy
9:50 PM 33.8 °F 23.5 °F 30.2 °F 87% 29.68 in 5.0 mi East 16.1 mph - N/A   Mostly Cloudy
10:20 PM 33.8 °F 24.3 °F 30.2 °F 87% 29.68 in 5.0 mi East 13.8 mph - N/A   Mostly Cloudy
10:50 PM 33.8 °F 24.3 °F 30.2 °F 87% 29.71 in 4.3 mi ENE 13.8 mph - N/A   Mostly Cloudy
11:20 PM 33.8 °F 24.3 °F 28.4 °F 81% 29.71 in 5.6 mi ENE 13.8 mph - N/A   Overcast
11:50 PM 33.8 °F 24.8 °F 28.4 °F 81% 29.71 in 6.2 mi ENE 12.7 mph - N/A   Overcast